Flag for Japan Weather past 2 weeks in Kitakyushu, Japan

Now
84 °F

Passing clouds.


Feels Like: 96 °F
Forecast: 80 / 88 °F
Wind: 7 mph from East

Location: Kitakyushu Airport

Current Time: Jul 25, 2014 at 11:14:08 PM

Latest Report: Jul 25, 2014 at 10:00 PM


Visibility: N/A

Pressure: 29.89 "Hg

Humidity: 84%

Dew point: 79 °F

Location of KitakyushuLocation

Historic Weather in Kitakyushu — Graph

°F

Kitakyushu temperature yesterday

Maximum temperature yesterday: 91 °F (at 11:00 AM)
Minimum temperature yesterday: 81 °F (at 2:00 AM)
Average temperature yesterday: 85 °F

Past Weeks' High & Low Weather Summary

 TemperatureHumidityPressure
High91 °F (Jul 24, 11:00 AM)100% (Jul 16, 3:00 AM)29.95 "Hg (Jul 16, 3:00 AM)
Low70 °F (Jul 12, 8:00 PM)43% (Jul 11, 3:00 PM)29.45 "Hg (Jul 10, 10:00 PM)
Average79 °F82%29.79 "Hg
* Reported Jul 10 10:00 PM — Jul 25 10:00 PM, Kitakyushu, Weather by CustomWeather, © 2014

Note: Actual official high and low records may vary slightly from our data, if they occured in-between our weather recording intervals... More about our weather records

Advertising

Kitakyushu weather history for previous 24 hours

 ConditionsComfort  
Time TempWeatherWind HumidityBarometerVisibility
10:00 PM
Jul 25
84 °FPassing clouds.7 mph84%29.89 "HgN/A
9:00 PM84 °FPassing clouds.3 mph84%29.86 "HgN/A
8:00 PM84 °FPassing clouds.3 mph84%29.86 "HgN/A
7:00 PM84 °FScattered clouds.6 mph84%29.83 "HgN/A
6:00 PM86 °FBroken clouds.5 mph79%29.83 "HgN/A
5:00 PM88 °FBroken clouds.2 mph70%29.83 "HgN/A
4:00 PM88 °FScattered clouds.2 mph75%29.83 "HgN/A
3:00 PM88 °FScattered clouds.2 mph70%29.83 "HgN/A
2:00 PM86 °FScattered showers. Scattered clouds.5 mph79%29.83 "HgN/A
1:00 PM88 °FBroken clouds.5 mph70%29.83 "HgN/A
12:00 PM88 °FPartly sunny.9 mph70%29.83 "HgN/A
11:00 AM88 °FPassing clouds.6 mph75%29.83 "HgN/A
10:00 AM86 °FPassing clouds.7 mph79%29.83 "HgN/A
9:00 AM86 °FPassing clouds.6 mph79%29.83 "HgN/A
8:00 AM84 °FScattered clouds.6 mph84%29.83 "HgN/A
7:00 AM84 °FPassing clouds.7 mph84%29.80 "HgN/A
6:00 AM82 °FScattered clouds.5 mph89%29.80 "HgN/A
5:00 AM82 °FPassing clouds.6 mph84%29.80 "HgN/A
4:00 AM82 °FPassing clouds.7 mph84%29.80 "HgN/A
3:00 AM82 °FPartly cloudy.3 mph84%29.80 "HgN/A
2:00 AM82 °FPassing clouds.2 mph84%29.80 "HgN/A
1:00 AM84 °FPassing clouds.6 mph79%29.80 "HgN/A
12:00 AM82 °FPassing clouds.6 mph89%29.80 "HgN/A
11:00 PM
Jul 24
82 °FPassing clouds.8 mph89%29.80 "HgN/A
Weather by CustomWeather, © 2014

See weather overviewHow to use our weather pages